FBZ5003 SACO-SABE

Flight info

Callsign FBZ5003
Flight time 0h 56m
Altitude 35000
Route UTRAX UW24 SNT
Aircraft B738/M-SDFGHIRWZ/S

Departure

Time 2026-05-03 20:54
Airport Ingeniero Aeronáutico Ambrosio L.V. Taravella International Airport (SACO)

Arrival

Time 2026-05-03 21:50
Airport Aeroparque Jorge Newbery (SABE)
Time Latitude Longitude Altitude Speed Heading
2026-05-03 20:31 -31.31616 -64.21159 1566 ft 0 kts 269°
2026-05-03 20:45 -31.31616 -64.21157 1566 ft 1 kts 269°
2026-05-03 20:45 -31.31616 -64.21140 1565 ft 2 kts 268°
2026-05-03 20:46 -31.31616 -64.21125 1564 ft 2 kts 269°
2026-05-03 20:46 -31.31612 -64.21107 1564 ft 2 kts 232°
2026-05-03 20:46 -31.31601 -64.21096 1564 ft 2 kts 204°
2026-05-03 20:46 -31.31589 -64.21092 1564 ft 2 kts 186°
2026-05-03 20:47 -31.31581 -64.21091 1564 ft 1 kts 193°
2026-05-03 20:47 -31.31580 -64.21091 1564 ft 0 kts 193°
2026-05-03 20:49 -31.31581 -64.21091 1564 ft 0 kts 193°
2026-05-03 20:49 -31.31606 -64.21098 1563 ft 6 kts 190°
2026-05-03 20:49 -31.31672 -64.21098 1562 ft 11 kts 179°
2026-05-03 20:50 -31.31760 -64.21071 1559 ft 15 kts 135°
2026-05-03 20:50 -31.31868 -64.21030 1555 ft 18 kts 179°
2026-05-03 20:50 -31.32011 -64.21027 1549 ft 21 kts 179°
2026-05-03 20:50 -31.32167 -64.21024 1546 ft 23 kts 179°
2026-05-03 20:51 -31.32332 -64.21021 1543 ft 20 kts 179°
2026-05-03 20:51 -31.32399 -64.21017 1541 ft 1 kts 159°
2026-05-03 20:51 -31.32400 -64.21016 1541 ft 0 kts 157°
2026-05-03 20:51 -31.32416 -64.21002 1541 ft 7 kts 139°
2026-05-03 20:52 -31.32447 -64.20913 1538 ft 14 kts 83°
2026-05-03 20:52 -31.32406 -64.20850 1538 ft 7 kts 43°
2026-05-03 20:52 -31.32372 -64.20814 1538 ft 6 kts 43°
2026-05-03 20:52 -31.32342 -64.20779 1538 ft 6 kts 44°
2026-05-03 20:53 -31.32299 -64.20730 1538 ft 16 kts 44°
2026-05-03 20:53 -31.32021 -64.20417 1539 ft 90 kts 44°
2026-05-03 20:53 -31.31414 -64.19730 1546 ft 149 kts 44°
2026-05-03 20:53 -31.30619 -64.18823 1967 ft 163 kts 43°
2026-05-03 20:54 -31.29798 -64.17914 2657 ft 166 kts 40°
2026-05-03 20:54 -31.28708 -64.15692 3903 ft 187 kts 93°
2026-05-03 20:54 -31.29344 -64.14255 4359 ft 212 kts 125°
2026-05-03 20:55 -31.30403 -64.12910 4647 ft 238 kts 128°
2026-05-03 20:55 -31.31600 -64.11411 4891 ft 262 kts 128°
2026-05-03 20:55 -31.32867 -64.09807 4998 ft 268 kts 128°
2026-05-03 20:55 -31.34117 -64.08199 5006 ft 267 kts 128°
2026-05-03 20:56 -31.35353 -64.06596 5001 ft 267 kts 128°
2026-05-03 20:56 -31.36613 -64.04950 4995 ft 268 kts 128°
2026-05-03 20:56 -31.37860 -64.03321 4998 ft 268 kts 128°
2026-05-03 20:56 -31.39101 -64.01700 4996 ft 269 kts 128°
2026-05-03 20:57 -31.40356 -64.00060 4993 ft 268 kts 128°
2026-05-03 20:57 -31.41594 -63.98443 4995 ft 267 kts 127°
2026-05-03 20:57 -31.42847 -63.96804 4998 ft 268 kts 128°
2026-05-03 20:57 -31.44087 -63.95184 4997 ft 267 kts 128°
2026-05-03 20:58 -31.45335 -63.93550 5001 ft 269 kts 128°
2026-05-03 20:58 -31.46586 -63.91913 5006 ft 268 kts 128°
2026-05-03 20:58 -31.47840 -63.90269 5002 ft 269 kts 128°
2026-05-03 20:58 -31.49138 -63.88562 5171 ft 293 kts 128°
2026-05-03 20:59 -31.50493 -63.86780 5942 ft 300 kts 129°
2026-05-03 20:59 -31.51885 -63.84958 6893 ft 303 kts 130°
2026-05-03 20:59 -31.53301 -63.83106 7913 ft 303 kts 130°
2026-05-03 20:59 -31.54699 -63.81275 8833 ft 306 kts 131°
2026-05-03 21:00 -31.56130 -63.79399 9729 ft 309 kts 131°
2026-05-03 21:00 -31.57068 -63.78167 10266 ft 312 kts 132°
2026-05-03 21:00 -31.59062 -63.75549 11007 ft 332 kts 133°
2026-05-03 21:00 -31.60614 -63.73510 11499 ft 347 kts 133°
2026-05-03 21:01 -31.62259 -63.71349 11969 ft 362 kts 133°
2026-05-03 21:01 -31.63983 -63.69084 12410 ft 377 kts 133°
2026-05-03 21:01 -31.65751 -63.66756 13047 ft 384 kts 133°
2026-05-03 21:01 -31.67510 -63.64437 13729 ft 388 kts 133°
2026-05-03 21:02 -31.69324 -63.62044 14424 ft 393 kts 134°
2026-05-03 21:02 -31.71159 -63.59621 15120 ft 398 kts 134°
2026-05-03 21:02 -31.72983 -63.57212 15858 ft 400 kts 134°
2026-05-03 21:02 -31.74849 -63.54747 16530 ft 404 kts 135°
2026-05-03 21:03 -31.76730 -63.52259 17215 ft 408 kts 135°
2026-05-03 21:03 -31.78635 -63.49740 17879 ft 411 kts 135°
2026-05-03 21:03 -31.80523 -63.47240 18566 ft 414 kts 135°
2026-05-03 21:03 -31.82463 -63.44672 19165 ft 420 kts 136°
2026-05-03 21:04 -31.84386 -63.42126 19779 ft 424 kts 136°
2026-05-03 21:04 -31.86362 -63.39508 20422 ft 428 kts 136°
2026-05-03 21:04 -31.88327 -63.36903 21071 ft 430 kts 136°
2026-05-03 21:04 -31.90307 -63.34204 21699 ft 435 kts 134°
2026-05-03 21:05 -31.92231 -63.31427 22309 ft 439 kts 133°
2026-05-03 21:05 -31.94120 -63.28611 22827 ft 444 kts 133°
2026-05-03 21:05 -31.96043 -63.25706 23390 ft 448 kts 133°
2026-05-03 21:05 -31.97975 -63.22783 23944 ft 451 kts 133°
2026-05-03 21:06 -31.99902 -63.19875 24529 ft 453 kts 133°
2026-05-03 21:06 -32.01850 -63.16943 25028 ft 457 kts 133°
2026-05-03 21:06 -32.03825 -63.13981 25539 ft 461 kts 134°
2026-05-03 21:06 -32.05807 -63.11014 26102 ft 463 kts 134°
2026-05-03 21:07 -32.07818 -63.08006 26587 ft 466 kts 134°
2026-05-03 21:07 -32.09831 -63.04997 27117 ft 469 kts 134°
2026-05-03 21:07 -32.11846 -63.01985 27600 ft 472 kts 134°
2026-05-03 21:07 -32.13898 -62.98915 28156 ft 473 kts 134°
2026-05-03 21:08 -32.15932 -62.95870 28556 ft 478 kts 134°
2026-05-03 21:08 -32.17992 -62.92788 28996 ft 481 kts 134°
2026-05-03 21:08 -32.20088 -62.89646 29542 ft 481 kts 134°
2026-05-03 21:08 -32.22127 -62.86582 30296 ft 477 kts 134°
2026-05-03 21:09 -32.24186 -62.83481 30950 ft 474 kts 134°
2026-05-03 21:09 -32.26208 -62.80439 31509 ft 473 kts 134°
2026-05-03 21:09 -32.28255 -62.77358 32054 ft 472 kts 134°
2026-05-03 21:09 -32.30310 -62.74262 32691 ft 469 kts 135°
2026-05-03 21:10 -32.32306 -62.71252 33197 ft 468 kts 135°
2026-05-03 21:10 -32.34341 -62.68185 33634 ft 469 kts 135°
2026-05-03 21:10 -32.36353 -62.65154 34142 ft 467 kts 135°
2026-05-03 21:10 -32.38374 -62.62103 34632 ft 466 kts 135°
2026-05-03 21:11 -32.40369 -62.59091 34981 ft 467 kts 135°
2026-05-03 21:11 -32.42384 -62.56052 34990 ft 468 kts 135°
2026-05-03 21:11 -32.46407 -62.49963 34990 ft 465 kts 135°
2026-05-03 21:12 -32.50393 -62.43918 34991 ft 465 kts 135°
2026-05-03 21:12 -32.54374 -62.37875 34990 ft 465 kts 135°
2026-05-03 21:13 -32.58348 -62.31830 34990 ft 464 kts 135°
2026-05-03 21:13 -32.62349 -62.25740 34987 ft 467 kts 135°
2026-05-03 21:14 -32.66347 -62.19635 34996 ft 466 kts 135°
2026-05-03 21:14 -32.70278 -62.13547 35000 ft 467 kts 133°
2026-05-03 21:15 -32.74023 -62.07230 35007 ft 468 kts 131°
2026-05-03 21:15 -32.77710 -62.00795 35004 ft 469 kts 131°
2026-05-03 21:16 -32.81358 -61.94434 35010 ft 467 kts 131°
2026-05-03 21:16 -32.85065 -61.88014 35010 ft 468 kts 131°
2026-05-03 21:17 -32.88141 -61.82704 35012 ft 468 kts 132°
2026-05-03 21:17 -32.92469 -61.75238 35014 ft 468 kts 132°
2026-05-03 21:18 -32.96171 -61.68846 35014 ft 469 kts 132°
2026-05-03 21:18 -32.99870 -61.62448 35017 ft 470 kts 131°
2026-05-03 21:19 -33.03548 -61.56074 35018 ft 468 kts 131°
2026-05-03 21:19 -33.07256 -61.49637 35019 ft 466 kts 131°
2026-05-03 21:20 -33.10918 -61.43270 35018 ft 468 kts 131°
2026-05-03 21:20 -33.14582 -61.36890 35020 ft 467 kts 131°
2026-05-03 21:21 -33.18254 -61.30483 35021 ft 466 kts 131°
2026-05-03 21:21 -33.21911 -61.24090 35022 ft 467 kts 131°
2026-05-03 21:22 -33.25595 -61.17641 35022 ft 466 kts 131°
2026-05-03 21:22 -33.29250 -61.11230 35023 ft 466 kts 131°
2026-05-03 21:23 -33.32894 -61.04807 35021 ft 468 kts 131°
2026-05-03 21:23 -33.36566 -60.98307 35021 ft 468 kts 131°
2026-05-03 21:24 -33.40169 -60.91899 35024 ft 466 kts 131°
2026-05-03 21:24 -33.43806 -60.85415 35025 ft 467 kts 131°
2026-05-03 21:25 -33.47427 -60.78949 35026 ft 468 kts 131°
2026-05-03 21:25 -33.51025 -60.72513 35022 ft 466 kts 131°
2026-05-03 21:26 -33.54636 -60.66043 35027 ft 465 kts 131°
2026-05-03 21:26 -33.58234 -60.59587 35024 ft 467 kts 131°
2026-05-03 21:27 -33.61856 -60.53085 35025 ft 466 kts 131°
2026-05-03 21:27 -33.65456 -60.46606 35024 ft 466 kts 131°
2026-05-03 21:28 -33.69048 -60.40125 35022 ft 466 kts 131°
2026-05-03 21:28 -33.72643 -60.33632 35024 ft 468 kts 130°
2026-05-03 21:29 -33.76290 -60.27034 35028 ft 468 kts 130°
2026-05-03 21:29 -33.79859 -60.20554 35033 ft 464 kts 130°
2026-05-03 21:30 -33.81647 -60.17305 34800 ft 461 kts 131°
2026-05-03 21:30 -33.82809 -60.15187 34516 ft 457 kts 131°
2026-05-03 21:30 -33.85137 -60.10955 33782 ft 455 kts 131°
2026-05-03 21:30 -33.86901 -60.07788 33134 ft 458 kts 131°
2026-05-03 21:31 -33.88704 -60.04576 32387 ft 463 kts 131°
2026-05-03 21:31 -33.90509 -60.01369 31623 ft 468 kts 130°
2026-05-03 21:31 -33.92360 -59.98078 30868 ft 470 kts 130°
2026-05-03 21:31 -33.94174 -59.94837 30414 ft 465 kts 130°
2026-05-03 21:32 -33.95975 -59.91606 29896 ft 461 kts 130°
2026-05-03 21:32 -33.97754 -59.88409 29376 ft 458 kts 130°
2026-05-03 21:32 -33.99508 -59.85253 28850 ft 455 kts 130°
2026-05-03 21:32 -34.01271 -59.82079 28313 ft 452 kts 130°
2026-05-03 21:33 -34.03019 -59.78931 27782 ft 450 kts 129°
2026-05-03 21:33 -34.04753 -59.75805 27253 ft 447 kts 129°
2026-05-03 21:33 -34.06475 -59.72699 26719 ft 445 kts 129°
2026-05-03 21:33 -34.08187 -59.69610 26191 ft 443 kts 129°
2026-05-03 21:34 -34.09898 -59.66517 25648 ft 441 kts 129°
2026-05-03 21:34 -34.11522 -59.63417 25254 ft 438 kts 126°
2026-05-03 21:34 -34.13037 -59.60223 24735 ft 438 kts 123°
2026-05-03 21:34 -34.14468 -59.56994 24228 ft 435 kts 122°
2026-05-03 21:35 -34.15854 -59.53764 23729 ft 432 kts 121°
2026-05-03 21:35 -34.17234 -59.50507 23230 ft 428 kts 121°
2026-05-03 21:35 -34.18569 -59.47357 22752 ft 425 kts 121°
2026-05-03 21:35 -34.19918 -59.44187 22267 ft 422 kts 121°
2026-05-03 21:36 -34.21283 -59.40992 21777 ft 419 kts 121°
2026-05-03 21:36 -34.22606 -59.37907 21300 ft 415 kts 121°
2026-05-03 21:36 -34.23952 -59.34779 20809 ft 412 kts 121°
2026-05-03 21:36 -34.25267 -59.31727 20329 ft 409 kts 121°
2026-05-03 21:37 -34.26587 -59.28666 19844 ft 406 kts 121°
2026-05-03 21:37 -34.27874 -59.25680 19367 ft 402 kts 121°
2026-05-03 21:37 -34.29173 -59.22669 18889 ft 400 kts 121°
2026-05-03 21:37 -34.30450 -59.19704 18413 ft 397 kts 121°
2026-05-03 21:38 -34.31721 -59.16750 17933 ft 394 kts 121°
2026-05-03 21:38 -34.32984 -59.13813 17447 ft 390 kts 121°
2026-05-03 21:38 -34.34222 -59.10929 16968 ft 386 kts 121°
2026-05-03 21:38 -34.35466 -59.08031 16483 ft 382 kts 121°
2026-05-03 21:39 -34.36670 -59.05225 15984 ft 375 kts 121°
2026-05-03 21:39 -34.37862 -59.02437 15488 ft 360 kts 121°
2026-05-03 21:39 -34.38978 -58.99821 15002 ft 348 kts 121°
2026-05-03 21:39 -34.40086 -58.97226 14481 ft 338 kts 121°
2026-05-03 21:40 -34.41152 -58.94734 13873 ft 330 kts 121°
2026-05-03 21:40 -34.42199 -58.92289 13237 ft 325 kts 121°
2026-05-03 21:40 -34.43231 -58.89881 12639 ft 320 kts 120°
2026-05-03 21:40 -34.44253 -58.87494 12034 ft 316 kts 120°
2026-05-03 21:41 -34.45254 -58.85152 11434 ft 313 kts 120°
2026-05-03 21:41 -34.46254 -58.82809 10846 ft 312 kts 119°
2026-05-03 21:41 -34.47247 -58.80483 10351 ft 314 kts 118°
2026-05-03 21:41 -34.48254 -58.78119 9959 ft 312 kts 118°
2026-05-03 21:42 -34.49239 -58.75806 9596 ft 310 kts 118°
2026-05-03 21:42 -34.50233 -58.73465 9290 ft 305 kts 118°
2026-05-03 21:42 -34.51191 -58.71209 9047 ft 299 kts 118°
2026-05-03 21:42 -34.52138 -58.68977 8802 ft 293 kts 118°
2026-05-03 21:43 -34.53057 -58.66809 8557 ft 288 kts 117°
2026-05-03 21:43 -34.53974 -58.64647 8307 ft 283 kts 117°
2026-05-03 21:43 -34.54848 -58.62585 8029 ft 266 kts 117°
2026-05-03 21:43 -34.55682 -58.60615 7546 ft 258 kts 117°
2026-05-03 21:44 -34.56484 -58.58721 7062 ft 250 kts 116°
2026-05-03 21:44 -34.57265 -58.56873 6565 ft 244 kts 116°
2026-05-03 21:44 -34.58041 -58.55038 6060 ft 239 kts 116°
2026-05-03 21:44 -34.58791 -58.53264 5563 ft 236 kts 115°
2026-05-03 21:45 -34.59525 -58.51526 5110 ft 230 kts 115°
2026-05-03 21:45 -34.60245 -58.49821 4733 ft 222 kts 115°
2026-05-03 21:45 -34.60933 -58.48193 4380 ft 212 kts 114°
2026-05-03 21:45 -34.61601 -58.46610 3996 ft 206 kts 114°
2026-05-03 21:46 -34.62242 -58.45087 3622 ft 201 kts 113°
2026-05-03 21:46 -34.62870 -58.43595 3248 ft 196 kts 112°
2026-05-03 21:46 -34.63488 -58.42128 2873 ft 192 kts 112°
2026-05-03 21:46 -34.63952 -58.40669 2592 ft 174 kts 88°
2026-05-03 21:47 -34.63701 -58.39390 2335 ft 146 kts 45°
2026-05-03 21:47 -34.62986 -58.38621 2131 ft 136 kts 32°
2026-05-03 21:47 -34.62258 -58.37929 1875 ft 132 kts 33°
2026-05-03 21:47 -34.61542 -58.37238 1603 ft 131 kts 33°
2026-05-03 21:48 -34.60788 -58.36589 1315 ft 130 kts 21°
2026-05-03 21:48 -34.59917 -58.36435 1117 ft 129 kts 352°
2026-05-03 21:48 -34.59058 -58.36798 828 ft 134 kts 330°
2026-05-03 21:48 -34.58341 -58.37570 639 ft 140 kts 314°
2026-05-03 21:49 -34.57714 -58.38490 545 ft 144 kts 312°
2026-05-03 21:49 -34.57100 -58.39466 336 ft 145 kts 308°
2026-05-03 21:49 -34.56526 -58.40494 107 ft 146 kts 306°
2026-05-03 21:49 -34.55990 -58.41462 26 ft 121 kts 306°
2026-05-03 21:50 -34.55679 -58.42018 26 ft 46 kts 303°
2026-05-03 21:50 -34.55520 -58.42307 26 ft 39 kts 304°
2026-05-03 21:50 -34.55395 -58.42515 26 ft 13 kts 340°
2026-05-03 21:50 -34.55358 -58.42432 26 ft 14 kts 99°
2026-05-03 21:51 -34.55404 -58.42324 26 ft 14 kts 127°
2026-05-03 21:51 -34.55466 -58.42223 26 ft 14 kts 127°
2026-05-03 21:51 -34.55528 -58.42120 26 ft 14 kts 126°
2026-05-03 21:51 -34.55589 -58.42019 26 ft 14 kts 125°
2026-05-03 21:52 -34.55647 -58.41916 26 ft 14 kts 124°
2026-05-03 21:52 -34.55704 -58.41813 26 ft 14 kts 124°
2026-05-03 21:52 -34.55754 -58.41703 26 ft 14 kts 116°
2026-05-03 21:52 -34.55800 -58.41592 26 ft 14 kts 116°
2026-05-03 21:53 -34.55847 -58.41481 26 ft 14 kts 117°
2026-05-03 21:53 -34.55893 -58.41373 26 ft 12 kts 114°
2026-05-03 21:53 -34.55859 -58.41294 26 ft 11 kts 17°
2026-05-03 21:53 -34.55803 -58.41346 26 ft 8 kts 302°
2026-05-03 21:54 -34.55772 -58.41348 26 ft 4 kts 29°
2026-05-03 21:54 -34.55755 -58.41336 26 ft 1 kts 34°
2026-05-03 21:54 -34.55755 -58.41335 26 ft 0 kts 34°